Regional Weather Roundup
Issued by NWS

Current Version | Previous Version | Text Only | Print | Product List | Glossary On
Versions: 1 2 3 4 5 6 7 8 9 10 11 12 13 14 15 16 17 18 19 20 21 22 23 24 25 26 27 28 29 30 31 32 33 34 35 36 37 38 39 40 41 42 43 44 45 46 47 48 49 50
000
ASCA44 KEWX 232120
RWRMX

LATIN AMERICA AND CARIBBEAN REGIONAL WEATHER ROUNDUP
NATIONAL WEATHER SERVICE AUSTIN/SAN ANTONIO TX
400 PM CDT TUE AUG 23 2016

NOTE: "FAIR" INDICATED FEW OR NO CLOUDS BELOW 12,000 FEET WITH NO
SIGNIFICANT WEATHER AND/OR OBSTRUCTIONS TO VISIBILITY.

BAJA CALIFORNIA

CITY           SKY/WX    TMP DP  RH WIND       PRES   REMARKS
LORETO         PTSUNNY   91  73  55 NE12      29.92S HX 100
LA PAZ         PTSUNNY   90  68  48 NE6       29.96F HX  93
MEXICALI       SUNNY    102  43  13 NW5       29.89F HX  98
S.J. DEL CABO  CLOUDY    84  68  58 NE6       29.97F
TIJUANA        SUNNY     77  54  44 W10       30.05F

NORTHWESTERN MEXICO

CITY           SKY/WX    TMP DP  RH WIND       PRES   REMARKS
CULIACAN       PTSUNNY   90  75  62 W3        29.93F HX 100
DURANGO        CLOUDY    70  57  64 S10       30.31F
GUAYMAS        MOSUNNY   93  81  66 S12       29.89F HX 113
HERMOSILLO     MOSUNNY   99  73  44 SW5       29.96F HX 109
CD. JUAREZ     PTSUNNY   90  61  37 CALM      30.02F
LOS MOCHIS     CLOUDY    81  73  78 NE5       29.96F
OBREGON        MOSUNNY   86  73  66 E7        29.94F HX  93

NORTHEASTERN MEXICO

CITY           SKY/WX    TMP DP  RH WIND       PRES   REMARKS
CHIHUAHUA      PTSUNNY   81  57  44 SE8       30.17F
MATAMOROS      PTSUNNY   95  70  43 SE9       30.07F HX 101
MONCLOVA         N/A    N/A N/A N/A MISG        N/A
MONTERREY      SUNNY     95  55  26 SE21      30.03F HX  93
NUEVO LAREDO   SUNNY     97  61  30 S21       30.02F HX  97
PIEDRAS NEGRAS SUNNY     91  72  52 SE14      30.03  HX  98
REYNOSA        MOSUNNY   95  59  30 SE17      30.04F HX  94
SALTILLO       SUNNY     86  63  45 N17       30.27F
TORREON        MOSUNNY   90  61  37 E3        30.15F
CD. VICTORIA   MOSUNNY   86  70  58 SW8       30.08F HX  90

WESTERN MEXICO

CITY           SKY/WX    TMP DP  RH WIND       PRES   REMARKS
AGUASCALIENTES PTSUNNY   73  50  43 S5        30.33F
COLIMA         PTSUNNY   81  73  78 SW14      30.06F
DEL BAJIO      PTSUNNY   79  54  41 E6        30.33F
GUADALAJARA    PTSUNNY   79  61  53 E6        30.22F
MANZANILLO     PTSUNNY   88  77  70 S9        29.91F HX 100
MAZATLAN       PTSUNNY   90  77  66 NW7       29.94F HX 102
P. VALLARTA    MOSUNNY   90  75  62 SW9       29.92F HX 100
URUAPAN        PTSUNNY   72  63  73 S9        30.23F THUNDER
ZACATECAS        N/A    N/A N/A N/A MISG        N/A

CENTRAL MEXICO

CITY           SKY/WX    TMP DP  RH WIND       PRES   REMARKS
CUERNAVACA     PTSUNNY   81  63  54 SW3       30.18F
MEXICO CITY    CLOUDY    73  46  38 NE9       30.35F
MORELIA        PTSUNNY   77  57  50 N5        30.26F
POZA RICA      LGT RAIN  75  73  94 CALM      30.11F
PUEBLA         PTSUNNY   70  48  46 S8        30.37F
QUERETARO      PTSUNNY   75  54  46 E12       30.35F
S. LUIS POTOSI MOSUNNY   75  45  33 E20       30.32F
TAMPICO        PTSUNNY   86  75  70 E9        30.07F HX  95
TOLUCA         PTSUNNY   63  50  63 S18       30.45F

SOUTHERN MEXICO

CITY           SKY/WX    TMP DP  RH WIND       PRES   REMARKS
ACAPULCO       CLOUDY    86  77  74 SW3       29.90F HX  97
B. DE HUATULCO PTSUNNY   88  75  66 S12       29.95F HX  97
OAXACA         LGT RAIN  70  61  73 N5        30.27F
P. ESCONDIDO   MOSUNNY   86  77  74 SW12      30.01S HX  97
VERACRUZ       CLOUDY    77  73  88 N3        30.06F
ZIHUATANEJO    CLOUDY    88  77  70 SW6       29.93F HX 100

YUCATAN PENINSULA

CITY           SKY/WX    TMP DP  RH WIND       PRES   REMARKS
CAMPECHE       MOSUNNY   95  73  49 E12G23    29.97F HX 105
CANCUN         MOSUNNY   88  77  70 NE8       30.04F HX 100
CHETUMAL       MOSUNNY   91  77  62 E6        30.01F HX 105
CD. DEL CARMEN PTSUNNY   91  72  52 E10       29.98F HX  98
COZUMEL        MOSUNNY   84  77  79 NE10      30.03F HX  94
MERIDA         MOSUNNY   99  66  34 NE14      30.00F HX 102
MINATITLAN     CLOUDY    82  68  61 N12       29.95F
TAPACHULA      MOSUNNY   90  75  62 SW9       29.81F HX 100
TUX. GUTIERREZ MOSUNNY   90  64  43 SE6       29.97F HX  91
VILLAHERMOSA   PTSUNNY   90  73  58 E17       29.97F HX  98

CENTRAL AMERICA

CITY           SKY/WX    TMP DP  RH WIND       PRES   REMARKS
BELIZE CITY    MOSUNNY  N/A N/A N/A E9          N/A
MANAGUA        PTCLDY    79  72  78 E5        29.86

CARIBBEAN

CITY           SKY/WX    TMP DP  RH WIND       PRES   REMARKS
ARUBA          MOSUNNY   88  79  74 NE21      29.80S HX 102
CURACAO        MOSUNNY   86  79  79 E13       29.83S HX  99
KINGSTON       MOSUNNY   90  77  66 SE12      29.89S HX 102
NASSAU         PTSUNNY   90  81  74 N8        30.07F HX 108
SAN JUAN       MOSUNNY   86  75  70 NE10      29.93F HX  95
SANTO DOMINGO  LGT RAIN  82  77  83 E12       29.89S HX  91
ST. CROIX      MOSUNNY   88  72  58 NE10      29.91  HX  94
ST. KITTS      MOSUNNY   84  75  74 N9        29.86F HX  92
ST. MAARTEN    MOSUNNY   86  79  79 NE12      29.89S HX  99

$$




USA.gov is the U.S. government's official web portal to all federal, state and local government web resources and services.